#timestamp,LO_Frequency,Hit 
1499925615.5,286047002.7,N
1499925635.4,286047000.6,N
1499925655.1,286047000.6,N
1499925675.8,286047001.2,N
1499925695.7,286047001.1,N
1499925715.5,286047001.1,N
1499925735.3,286047002.2,N
1499925755.2,286047001.9,N
1499925775.9,286047005.7,N
1499925795.7,286047003.0,N
1499925815.6,286047007.0,N
1499925835.4,286047007.3,N
1499925855.2,286047006.4,N
1499925875.1,286047006.9,N
1499925876.0,286047006.9,N
1499925895.8,286047008.7,N
1499925915.6,286047010.0,Y
1499925935.5,286047007.1,N
1499925955.3,286047007.4,N
1499925975.1,286047009.0,N
1499925995.8,286047008.4,N
1499926015.7,286047010.0,N
1499926035.5,286047009.8,N
1499926055.9,286047009.7,N
1499926075.7,286047013.5,Y
1499926095.6,286047008.3,N
1499926115.4,286047007.3,N
1499926135.2,286047007.0,N
1499926155.0,286047006.7,N
1499926155.9,286047006.7,N
1499926175.8,286047006.2,N
1499926195.6,286047006.2,N
1499926215.4,286047012.4,Y
1499926235.3,286047009.7,N
1499926255.1,286047010.0,N
1499926275.8,286047007.9,N
1499926295.7,286047004.5,N
1499926315.5,286047007.0,N
1499926335.3,286047006.4,N
1499926355.2,286047008.3,N
1499926375.9,286047012.3,Y
1499926395.0,286047006.1,N
1499926395.9,286047006.1,N
1499926415.8,286047009.8,N
1499926435.6,286047009.4,N
1499926455.4,286047011.1,Y
1499926475.3,286047007.7,N
1499926495.1,286047006.2,N
1499926496.0,286047006.2,N
1499926515.8,286047006.9,N
1499926535.7,286047006.4,N
1499926555.5,286047010.1,N
1499926575.3,286047012.2,Y
1499926595.2,286047002.9,N
1499926615.9,286047003.7,N
1499926635.7,286047002.4,N
1499926655.5,286046998.2,N
1499926675.4,286047003.0,N
1499926695.2,286047001.3,N
1499926715.0,286047004.1,N
1499926715.9,286047004.1,N
1499926735.8,286047005.8,N
1499926755.6,286047002.9,N
1499926775.4,286047004.9,N
1499926795.3,286047001.3,N
1499926815.1,286047005.8,N
1499926816.0,286047005.8,N
1499926835.8,286047005.2,N
1499926855.7,286047008.1,N
1499926875.5,286047011.7,Y
1499926895.3,286047005.9,N
1499926915.2,286047004.5,N
1499926935.9,286047006.7,N
1499926955.7,286047010.3,N
1499926975.6,286047007.9,N
1499926995.4,286047007.9,N
1499927015.2,286047009.0,N
1499927035.0,286047007.8,N
1499927035.9,286047007.8,N
1499927055.8,286047011.5,Y
1499927075.6,286047005.2,N
1499927095.4,286047002.2,N
1499927115.3,286047005.4,N
1499927135.1,286047001.7,N
1499927155.8,286047002.1,N
1499927175.7,286047001.2,N
1499927195.5,286047004.9,N
1499927215.3,286047008.9,N
1499927235.2,286047005.2,N
1499927255.9,286047001.5,N
1499927275.7,286047001.9,N
1499927295.6,286047005.6,N
1499927315.4,286047003.1,N
1499927335.2,286047003.5,N
1499927355.0,286047004.9,N
1499927355.9,286047004.9,N
1499927375.8,286047009.8,Y
1499927395.6,286047002.7,N
1499927415.4,286046995.0,N
1499927435.3,286046995.1,N
1499927455.1,286046991.7,N
1499927475.8,286046993.7,N
1499927495.7,286046993.1,N
1499927515.5,286046987.3,Y
1499927535.4,286046985.2,Y
1499927555.2,286046977.8,Y
1499927575.0,286046975.1,Y
1499927575.9,286046975.1,Y
1499927595.8,286046965.1,Y
1499927615.9,286046962.0,Y
1499927635.7,286046959.6,Y
1499927655.5,286046950.8,Y
1499927675.4,286046951.7,Y
1499927695.2,286046954.1,Y
1499927715.1,286046942.2,Y
1499927716.0,286046942.2,Y
1499927735.8,286046939.0,Y
1499927755.6,286046938.2,Y
1499927775.5,286046939.7,Y
1499927795.3,286046938.2,Y
1499927815.2,286046937.5,Y
1499927835.9,286046941.9,N
1499927855.7,286046939.7,N
1499927875.6,286046937.3,N
1499927895.4,286046940.1,N
1499927915.2,286046941.7,N
1499927935.0,286046946.8,N
1499927936.0,286046946.8,N
1499927955.8,286046942.6,N
1499927975.6,286046937.7,N
1499927995.4,286046937.9,N
1499928015.3,286046939.4,N
1499928035.1,286046941.1,N
1499928055.8,286046943.6,N
1499928075.7,286046941.6,N
1499928095.5,286046942.0,N
1499928115.3,286046948.2,N
1499928135.2,286046948.4,N
1499928155.9,286046947.8,N
1499928175.7,286046946.2,N
1499928195.5,286046947.7,N
1499928215.4,286046948.5,N
1499928235.3,286046952.7,N
1499928255.2,286046950.2,N
1499928275.9,286046947.1,N
1499928295.7,286046946.4,N
1499928315.5,286046946.3,N
1499928335.4,286046946.5,N
1499928355.2,286046946.5,N
1499928375.0,286046944.5,N
1499928375.9,286046944.5,N
1499928395.7,286046944.6,N
1499928415.5,286046950.0,N
1499928435.4,286046947.4,N
1499928455.2,286046948.8,N
1499928475.0,286046947.3,N
1499928475.9,286046947.3,N
1499928495.8,286046952.2,N
1499928515.6,286046948.5,N
1499928535.4,286046951.2,N
1499928555.3,286046950.5,N
1499928575.1,286046950.3,N
1499928576.0,286046950.3,N
1499928595.8,286046953.4,N
1499928615.7,286046956.7,N
1499928635.5,286046952.7,N
1499928655.3,286046952.8,N
1499928675.1,286046952.4,N
1499928695.9,286046953.0,N
1499928715.0,286046949.0,N
1499928715.9,286046949.0,N
1499928735.8,286046946.9,N
1499928755.6,286046951.1,N
1499928775.4,286046948.5,N
1499928795.2,286046951.6,N
1499928815.1,286046949.4,N
1499928816.0,286046949.4,N
1499928835.8,286046948.7,N
1499928855.6,286046947.0,N
1499928875.8,286046949.0,N
1499928895.6,286046945.3,N
1499928915.5,286046948.5,N
1499928935.3,286046949.6,N
1499928955.1,286046951.6,N
1499928975.9,286046949.4,N
1499928995.7,286046947.0,N
1499929015.5,286046949.8,N
1499929035.3,286046956.1,N
1499929055.2,286046957.9,N
1499929075.0,286046952.9,N
1499929075.9,286046952.9,N
1499929095.7,286046953.8,N
1499929115.6,286046955.6,N
1499929135.4,286046959.2,N
1499929155.2,286046960.7,N
1499929175.1,286046957.4,N
1499929176.0,286046957.4,N
1499929195.8,286046955.6,N
